www.pogodaiklimat.ru

Погода и климат >> Архив погоды >> Туркменистан >> Туркменабад


АРХИВ ПОГОДЫ в Туркменабаде

Время (UTC), дата Ветер
(напр.,м/с)
 
Видим.   Явления Облачность Т
(С)
Тd
(С)
f
(%)
Тe
(С)
Тes
(С)
Комфортность P
(гПа)
Po
(гПа)
Тmin
(С)
Tmax
(С)
R
(мм)
R24
(мм)
S
(см)
09 19.06 В 6 10 км 3/0
[Ci fib]
+36.0 +5.9 16 +34 +41 очень
жарко
1005.3 984.2
12 19.06 С 5 10 км 3/0
[Ci fib]
+35.8 +8.1 18 +34 +37 очень
жарко
1005.0 983.9
15 19.06 СВ 5 10 км 3/0
[Ac trans]
+33.5 +9.5 23 +33 +33 жарко 1005.1 983.9 +36.5
18 19.06 В 4 10 км 3/0
[Ac trans]
+28.5 +10.0 32 +29 +29 жарко 1005.7 984.1 +36.5
21 19.06 штиль 0 10 км 3/0
[Ac trans]
+25.5 +12.5 44 +27 +27 жарко 1005.8 984.0
00 20.06 С 1 10 км 3/0
[Ac trans]
+23.7 +12.3 49 +26 +26 жарко 1006.2 984.3
03 20.06 СВ 2 10 км ясно +26.1 +11.8 41 +27 +33 жарко 1006.8 985.1 +23.0
06 20.06 В 4 10 км 3/0
[Ac trans]
+33.7 +5.3 17 +31 +41 жарко 1007.1 985.9 +23.0
09 20.06 С 2 10 км 5/0
[Ac trans]
+36.1 -0.5 10 +32 +46 жарко 1006.0 984.9
12 20.06 В 2 10 км 3/0
[Ac trans]
+36.4 +1.5 11 +33 +39 жарко 1005.0 983.9
15 20.06 СВ 3 10 км 3/0
[Ac trans]
+35.3 +4.3 15 +33 +33 жарко 1004.9 983.7 +36.8
18 20.06 С 2 10 км ясно +30.9 +4.3 19 +29 +29 жарко 1005.3 983.9 +36.8
21 20.06 штиль 0 10 км ясно +26.0 +5.6 27 +25 +25 комфорт 1005.4 983.6
00 21.06 СВ 4 10 км ясно +23.1 +8.0 38 +24 +24 комфорт 1005.7 983.7
03 21.06 В 2 10 км ясно +26.9 +10.4 36 +28 +33 жарко 1006.4 984.7 +22.4
06 21.06 С 3 10 км ясно +36.3 -0.7 10 +33 +47 жарко 1006.0 984.9 +22.4
09 21.06 С 3 10 км 3/0
[Ac trans]
+37.9 -2.5 8 +34 +47 очень
жарко
1005.0 984.1
12 21.06 С 5 10 км 3/0
[Ac trans]
+38.3 -0.5 9 +35 +38 очень
жарко
1004.0 985.1
15 21.06 В 2 10 км 3/0
[Ac trans]
+37.4 +1.9 11 +34 +34 очень
жарко
1003.8 982.8 +39.1
18 21.06 В 3 10 км 4/0
[Ac trans]
+30.3 +5.8 21 +29 +29 жарко 1004.9 983.4 +39.1
21 21.06 В 2 10 км 3/0
[Ac trans]
+27.1 +7.8 29 +27 +27 жарко 1004.7 983.0
00 22.06 С 2 10 км 3/0
[Ac trans]
+23.9 +9.2 39 +25 +25 комфорт 1005.8 983.9
03 22.06 СВ 2 10 км 9/0
[Ac trans]
+25.5 +10.0 38 +26 +29 жарко 1007.4 985.6 +24.1
06 22.06 В 5 10 км 9/9 1500 м
[Sc Ac und]
+35.3 +2.7 13 +32 +33 жарко 1007.4 986.2 +23.9
09 22.06 СВ 5 10 км 4/0
[Ac und]
+38.2 +0.2 9 +34 +42 очень
жарко
1006.9 986.0
12 22.06 СВ 6 10 км 5/5 1500 м
[Sc]
+38.0 -0.9 9 +34 +36 очень
жарко
1006.6 985.7
15 22.06 СВ 4 10 км 3/3 1500 м
[Sc]
+35.2 +5.5 16 +33 +33 жарко 1007.2 986.0 +39.1
18 22.06 С 3 10 км 3/0
[Ac trans]
+30.3 +25 +25 комфорт 1007.9 986.4 +39.1
21 22.06 С 3 10 км 3/0
[Ac trans]
+25.0 +7.7 33 +25 +25 комфорт 1008.2 986.3
00 23.06 З 2 10 км ясно +22.1 +8.5 42 +23 +23 комфорт 1008.8 986.7
03 23.06 В 3 10 км ясно +30.3 +7.0 23 +29 +33 жарко 1009.6 988.1 +21.3
06 23.06 В 5 10 км ясно +35.4 +5.6 16 +33 +42 жарко 1010.1 988.8 +21.3
09 23.06 С 7 10 км 1/1 1500 м
[Cu med, cong]
+37.5 +1.7 11 +34 +39 очень
жарко
1009.4 988.3
12 23.06 С 7 10 км ясно +37.3 +0.9 10 +34 +36 очень
жарко
1008.7 987.6
15 23.06 С 5 10 км ясно +35.3 +5.3 16 +33 +33 жарко 1009.1 987.8 +38.0
18 23.06 С 3 10 км ясно +30.6 +6.4 22 +29 +29 жарко 1009.6 988.1 +38.0
21 23.06 С 4 10 км ясно +28.3 +5.8 24 +27 +27 жарко 1010.0 988.2
00 24.06 С 5 10 км ясно +24.5 +5.8 30 +24 +24 комфорт 1010.3 988.3
03 24.06 СВ 6 10 км ясно +28.8 +7.3 26 +28 +30 жарко 1010.8 989.1 +24.4
06 24.06 С 7 10 км ясно +35.3 +0.6 11 +32 +37 жарко 1011.2 990.1 +24.4 +24.4
09 24.06 С 4 10 км ясно +36.9 +3.0 12 +34 +47 очень
жарко
1010.1 989.0
12 24.06 С 5 10 км ясно +38.1 +0.2 9 +34 +38 очень
жарко
1008.9 987.8
15 24.06 С 4 10 км ясно +36.1 +1.1 11 +33 +33 жарко 1008.8 987.6 +38.1
18 24.06 С 3 10 км ясно +31.3 +6.4 21 +30 +30 жарко 1009.6 988.1 +38.1
21 24.06 СВ 3 10 км ясно +27.1 +6.1 26 +26 +26 жарко 1009.8 988.0
00 25.06 СВ 4 10 км ясно +24.4 +5.9 30 +24 +24 комфорт 1010.1 988.0
03 25.06 СВ 3 10 км ясно +26.2 +4.8 25 +25 +30 комфорт 1009.9 988.0 +24.0
06 25.06 СВ 2 10 км ясно +37.0 -1.2 9 +33 +51 опасность
солнечного
удара
1009.1 988.0 +24.0
09 25.06 С 2 10 км ясно +37.7 +1.1 10 +34 +53 опасность
солнечного
удара
1008.9 987.8
12 25.06 С 4 10 км ясно +38.7 -1.9 8 +35 +40 очень
жарко
1007.9 986.8
15 25.06 С 3 10 км ясно +37.1 -0.7 9 +33 +33 жарко 1007.3 986.3 +38.8
18 25.06 С 4 10 км ясно +31.8 +0.6 14 +29 +29 жарко 1007.7 986.3 +38.8
21 25.06 С 2 10 км ясно +25.3 +6.2 29 +25 +25 комфорт 1007.2 985.3
00 26.06 С 2 10 км ясно +25.1 +4.3 26 +24 +24 комфорт 1006.5 984.6
03 26.06 СВ 1 10 км ясно +28.7 +7.1 26 +28 +34 жарко 1006.8 985.2 +22.6
06 26.06 СВ 4 10 км ясно +37.5 +1.3 10 +34 +46 очень
жарко
1006.5 985.5 +22.6

 

Местоположение метеостанции Туркменабад (Лебапский велаят, Туркменистан): широта 39.08 долгота 63.60 высота над уровнем моря 190 м.

В архиве по умолчанию представлена погода в Туркменабаде за последнюю неделю. Архивные данные за месяц целиком и за предыдущие месяцы, начиная с января 2011 года, Вы можете получить, выбрав интересующий диапазон дат из раскрывающегося списка и нажав кнопку "Ввод!".


*Определитесь, кто Вы:
робот инопланетянин человек

Внимание! Время в таблицах - всемирное. Для получения местного времени необходимо прибавить поправку, которая равна 5 ч.

Смотрите также архив погоды в соседних городах и на ближайших метеорологических станциях:

Погода в Каракуле (Бухарская область, Узбекистан) (51 км)
Погода в Бурдалыке (Лебапский велаят, Туркменистан) (95 км)
Погода в Бухаре (Бухарская область, Узбекистан) (113 км)
Погода в Багтыярлыке (Марыйский велаят, Туркменистан) (131 км)
Погода в Карши (Кашкадарьинская область, Узбекистан) (186 км)
Погода в Навои (Навоийская область, Узбекистан) (190 км)
Погода в Дарганате (Лебапский велаят, Туркменистан) (191 км)
Погода в Айякагитме (Узбекистан) (193 км)
Погода в Атамурате (Лебапский велаят, Туркменистан) (197 км)
Погода в Джангельды (Бухарская область, Узбекистан) (198 км)

Пояснения к столбцам:

Ветер - указаны скорость ветра в м/с - средняя за 10 мин, порывы в срок и между сроками (в фигурных скобках) и направление, откуда дует ветер: С - северный, СВ - северо-восточный, В - восточный, ЮВ - юго-восточный, Ю - южный, ЮЗ - юго-западный, З - западный, СЗ - северо-западный.
Видимость - горизонтальная дальность видимости в метрах или километрах. При видимости от 1 до 10 км при отсутствии осадков обычно наблюдается дымка, при ухудшении видимости до 1 км и менее - туман. В сухую погоду видимость может ухудшаться дымом, пылью или мглою.
Явления - указаны атмосферные явления, наблюдавшиеся в срок или в последний час перед сроком; фигурными скобками обозначены явления, наблюдавшиеся между сроками (за 1-3 часа до срока); квадратными скобками обозначены град или гололедные отложения с указанием их диаметра в мм.
Облачность - указаны через наклонную черту общая и нижняя облачность в баллах и высота нижней границы облаков в метрах; квадратными скобками обозначены формы облаков: Ci - перистые, Cs - перисто-слоистые, Cc - перисто-кучевые, Ac - высококучевые, As - высокослоистые, Sc - слоисто-кучевые, Ns - слоисто-дождевые, Cu - кучевые, Cb - кучево-дождевые. Подробнее классификацию облаков см. в Атласе облаков (PDF).
T - Температура воздуха - температура, измеренная на высоте 2 м над землей.
Td - Температура точки росы - температура, при понижении до которой содержащийся в воздухе водяной пар достигнет насыщения.
f - Относительная влажность воздуха - влажноcть воздуха, измеренная на высоте 2 м над землей.
Te - Эффективная температура - температура, которую ощущает одетый по сезону человек в тени. Характеристика душности погоды. При расчете учитывается влияние влажности воздуха и скорости ветра на теплоощущения человека.
Tes - Эффективная температура на солнце - температура, которую ощущает человек, с поправкой на солнечный нагрев. Характеристика знойности погоды. Зависит от высоты солнца над горизонтом, облачности и скорости ветра. Ночью, в пасмурную погоду, а также при ветре 12 м/с и более поправка равна нулю.
P - Атмосферное давление - приведенное к уровню моря атмосферное давление.
Po - Атмосферное давление - измеренное на уровне метеостанции атмосферное давление.
Tmin - Минимальная температура - минимум температуры воздуха на высоте 2 м над землей.
Tmax - Максимальная температура - максимум температуры воздуха на высоте 2 м над землей.
R - Количество осадков - Количество выпавших осадков за период времени, мм. При наведении курсора мыши на число - период времени, за который выпало указанное количество осадков.
R24 - Количество осадков - Количество выпавших осадков за 24 часа, мм.
S - Снежный покров - Высота снежного покрова, см. При наведении курсора мыши на число - состояние снежного покрова и степень покрытия местности в баллах.